Flag for Germany Weather past 2 weeks in Lübeck, Schleswig-Holstein, Germany

Now
57 °F

Sunny.


Feels Like: 56 °F
Forecast: 49 / 64 °F
Wind: 6 mph from Southwest

Location: Luebeck-Blankensee

Current Time: Aug 23, 2014 at 7:57:44 PM

Latest Report: Aug 23, 2014 at 7:20 PM


Visibility: 10 mi

Pressure: 29.86 "Hg

Humidity: 72%

Dew point: 48 °F

Location of LübeckLocation

Historic Weather in Lübeck — Graph

°F

Lübeck temperature yesterday

Maximum temperature yesterday: 66 °F (at 12:20 PM)
Minimum temperature yesterday: 54 °F (at 6:50 AM)
Average temperature yesterday: 60 °F

Past Weeks' High & Low Weather Summary

 TemperatureHumidityPressure
High77 °F (Aug 8, 6:20 PM)100% (Aug 15, 7:20 AM)29.95 "Hg (Aug 15, 7:20 AM)
Low46 °F (Aug 21, 6:50 AM)36% (Aug 13, 4:20 PM)29.47 "Hg (Aug 18, 12:20 PM)
Average62 °F71%29.78 "Hg
* Reported Aug 8 6:20 PM — Aug 23 6:50 PM, Lübeck, Weather by CustomWeather, © 2014

Note: Actual official high and low records may vary slightly from our data, if they occured in-between our weather recording intervals... More about our weather records

Advertising

Lübeck weather history for previous 24 hours

 ConditionsComfort  
Time TempWeatherWind HumidityBarometerVisibility
6:50 PM
Aug 23
57 °FSunny.6 mph72%29.86 "Hg10 mi
6:20 PM57 °FScattered showers. Partly sunny.8 mph72%29.86 "HgN/A
5:50 PM55 °FScattered showers. Scattered clouds.8 mph82%29.86 "HgN/A
5:20 PM61 °FSunny.8 mph68%29.86 "Hg10 mi
4:50 PM63 °FPassing clouds.8 mph64%29.86 "HgN/A
4:20 PM59 °FSunny.10 mph68%29.86 "Hg10 mi
3:50 PM59 °FScattered showers. Partly sunny.5 mph77%29.86 "HgN/A
3:20 PM55 °FScattered showers. Broken clouds.3 mph82%29.86 "HgN/A
2:50 PM61 °FLots of rain. Partly sunny.8 mph55%29.86 "HgN/A
2:20 PM63 °FScattered showers. Scattered clouds.8 mph56%29.83 "HgN/A
1:50 PM64 °FScattered showers. Scattered clouds.13 mph56%29.83 "HgN/A
1:20 PM63 °FScattered clouds.12 mph64%29.83 "HgN/A
12:50 PM63 °FScattered clouds.13 mph59%29.83 "HgN/A
12:20 PM61 °FScattered clouds.14 mph63%29.83 "HgN/A
11:50 AM61 °FScattered clouds.12 mph63%29.83 "HgN/A
11:20 AM61 °FScattered clouds.13 mph68%29.83 "HgN/A
10:50 AM59 °FScattered clouds.10 mph68%29.83 "HgN/A
9:50 AM55 °FPartly sunny.9 mph82%29.83 "HgN/A
9:20 AM55 °FScattered clouds.12 mph82%29.83 "Hg6 mi
8:50 AM55 °FScattered clouds.10 mph82%29.83 "Hg6 mi
8:20 AM54 °FScattered clouds.9 mph88%29.83 "Hg4 mi
7:50 AM52 °FScattered clouds.7 mph94%29.83 "Hg4 mi
7:20 AM52 °FPartly sunny.7 mph94%29.83 "Hg5 mi
6:50 AM52 °FPassing clouds.9 mph94%29.80 "Hg4 mi
9:50 PM
Aug 22
55 °FLight rain. Partly cloudy.9 mph88%29.77 "HgN/A
9:20 PM57 °FSprinkles. Partly sunny.14 mph82%29.77 "HgN/A
8:50 PM57 °FScattered showers. Partly sunny.9 mph77%29.77 "HgN/A
8:20 PM57 °FSprinkles. Partly sunny.9 mph82%29.77 "HgN/A
7:50 PM59 °FScattered showers. Partly sunny.10 mph77%29.77 "HgN/A
7:20 PM59 °FScattered showers. Broken clouds.8 mph77%29.77 "HgN/A
Weather by CustomWeather, © 2014

See weather overviewHow to use our weather pages